Wind_Speed
26 26 25 25 25 24 23 22 20 19 20 20 19 17 17 17 17 16 16 15 15 14 14 14 14 14 14 14 14 14 14 14 14 13 13 12 13 13 14 16 16 17 17 18
27 27 27 26 26 25 25 24 22 21 21 21 20 18 18 18 17 17 16 16 16 16 16 16 15 16 15 15 16 16 16 16 16 15 14 14 15 15 16 17 18 18 19 19
27 27 26 27 26 26 26 25 23 23 22 21 20 20 19 19 19 18 18 17 17 17 17 17 17 17 17 17 18 18 17 17 17 17 17 16 17 17 18 19 19 19 20 20
27 27 28 27 26 26 26 25 25 26 25 23 22 21 20 20 20 20 19 19 19 19 18 19 19 18 18 18 18 18 18 18 18 18 18 19 19 19 20 20 20 20 20 21
28 28 27 28 27 25 25 25 26 26 26 25 24 23 23 22 21 21 20 20 20 20 20 21 20 20 20 20 19 20 19 19 19 20 20 21 21 21 21 20 21 21 22 22
30 29 28 28 27 26 26 27 26 27 26 26 25 25 24 23 22 22 22 22 22 22 22 23 23 22 22 22 21 21 21 21 21 21 22 22 21 21 21 22 22 23 24 24
31 31 30 30 28 27 28 28 27 27 27 27 26 26 25 24 24 24 24 24 24 24 24 25 25 24 23 23 22 22 22 23 23 23 23 23 23 23 23 23 24 24 25 26
32 31 31 30 28 29 29 29 28 28 28 27 27 27 27 26 26 26 26 27 26 26 26 26 26 26 26 25 24 24 24 24 24 25 25 24 24 24 24 24 25 25 26 26
34 34 32 31 29 28 28 28 29 28 28 28 28 28 29 29 28 28 28 28 28 28 29 29 28 28 27 26 26 25 25 25 25 25 26 25 25 25 25 26 26 27 27 27
35 34 33 32 31 30 30 29 29 29 28 29 30 30 31 31 30 29 29 29 29 29 30 31 30 29 29 28 27 27 26 26 26 26 26 26 27 26 26 26 27 27 28 28
35 35 34 33 33 32 31 30 29 29 29 29 29 30 30 30 30 30 30 30 30 29 29 29 29 29 29 28 28 28 27 26 26 26 26 26 27 27 27 28 28 29 29 29
35 35 35 34 34 33 33 32 31 31 31 30 30 31 31 31 31 31 31 30 30 30 30 30 30 30 30 30 29 29 28 27 27 27 27 27 28 29 29 29 29 30 29 29
34 34 34 34 34 34 34 34 33 33 33 32 32 32 32 32 32 31 31 31 31 31 31 30 30 30 31 31 30 29 28 28 28 28 28 28 29 30 29 30 30 30 30 31
34 34 34 34 34 34 34 34 34 35 35 35 34 33 33 33 32 32 32 32 32 32 31 31 31 31 31 31 31 31 30 30 30 29 29 30 30 31 31 31 32 31 31 31
33 34 34 34 34 34 34 34 34 34 35 36 35 34 33 33 32 32 32 32 32 32 32 32 32 33 32 32 33 32 32 31 31 31 31 31 31 32 32 32 33 32 31 31
31 32 31 32 33 33 34 34 34 34 34 34 34 33 33 33 33 32 32 32 32 32 33 33 33 33 33 33 33 33 33 33 32 32 32 32 32 33 33 33 33 32 32 31
30 30 30 30 30 31 32 33 33 33 33 33 33 33 33 33 33 33 33 33 33 33 34 34 33 33 33 33 32 33 33 33 32 32 32 32 33 34 34 34 33 32 32 31
29 29 29 29 29 29 30 31 32 32 32 32 33 33 32 32 32 33 34 34 34 34 34 34 33 33 34 34 33 33 32 32 32 32 32 32 33 34 34 34 34 32 32 32
25 27 27 27 28 28 29 30 31 32 32 33 33 33 32 32 32 33 34 34 35 35 35 35 34 34 33 33 33 32 31 32 32 32 32 33 33 33 33 33 32 31 31 31
22 24 25 26 26 28 29 30 30 31 32 32 32 32 32 32 32 32 32 33 34 34 33 33 33 32 32 31 31 31 31 31 31 31 32 32 32 32 31 31 31 30 30 31
22 22 23 25 26 27 28 28 29 30 30 30 30 30 31 31 31 31 31 31 31 30 31 31 31 30 31 30 30 30 29 29 30 30 30 30 30 31 30 29 28 29 28 28
22 23 23 24 25 25 26 27 27 27 27 28 29 29 29 28 29 30 29 28 28 29 28 29 28 28 29 28 28 28 28 28 29 29 29 29 29 28 26 25 25 26 26 26
20 21 22 22 23 23 24 24 25 26 26 26 27 27 26 27 27 28 28 28 28 28 27 27 27 26 26 26 26 26 26 27 27 27 27 27 26 25 24 24 24 24 25 26
18 18 18 18 19 21 23 23 23 24 24 24 24 24 25 26 26 26 26 26 27 27 27 26 25 25 24 24 24 25 26 26 26 26 26 24 24 24 23 23 24 25 25 25
14 15 16 16 17 19 19 20 21 22 22 22 23 23 24 24 25 25 25 25 25 25 25 25 24 24 23 23 23 23 23 24 24 24 23 23 23 23 23 23 23 23 23 23
14 14 14 14 14 15 16 17 18 19 21 21 21 22 22 23 23 23 22 22 22 22 22 22 23 22 21 21 21 21 22 22 23 23 23 23 22 22 22 22 22 22 22 23
12 12 13 13 13 14 15 16 16 17 18 19 20 20 20 20 20 20 19 20 20 20 19 19 19 20 20 20 20 20 20 21 21 21 21 21 21 21 21 21 22 22 22 23
Wind_Direction
236 238 240 241 242 243 243 244 247 249 253 255 253 255 256 258 259 262 264 266 268 271 273 271 273 275 275 276 278 279 280 282 284 289 291 294 297 298 299 300 301 301 302 301
241 242 242 241 240 241 243 244 247 248 250 253 254 254 255 257 257 260 262 263 265 269 272 272 272 273 274 276 278 279 280 281 282 286 289 292 296 297 298 299 300 300 300 300
241 243 243 241 240 242 243 244 246 248 249 252 253 252 254 254 255 258 260 263 264 266 269 271 273 273 274 276 278 278 279 278 280 282 284 288 292 294 297 298 298 298 299 299
242 243 243 242 240 242 244 245 245 246 248 252 254 254 255 254 254 257 259 261 263 265 267 267 269 271 273 276 276 277 280 279 279 280 282 285 288 292 294 296 296 297 298 298
239 242 245 243 241 242 244 247 246 247 249 251 254 255 255 253 254 257 260 262 262 262 265 266 268 269 272 274 275 276 280 280 279 279 281 285 287 288 290 291 293 295 296 297
239 239 242 245 243 244 246 248 247 247 249 250 250 251 254 253 254 256 259 262 261 261 263 265 266 268 270 274 277 279 280 280 279 278 279 283 285 286 287 289 291 294 296 297
239 241 244 246 245 246 247 249 248 249 248 248 249 249 250 251 253 255 258 261 263 261 261 263 265 267 271 274 275 276 277 278 278 278 279 282 283 283 284 288 292 294 295 295
238 241 244 246 247 246 248 250 250 250 249 249 250 251 250 250 250 252 257 260 262 261 261 263 265 267 270 272 274 274 274 276 277 277 279 282 283 282 283 286 291 293 295 295
240 242 245 248 248 248 249 251 251 251 250 250 251 253 253 251 251 254 257 259 261 262 262 262 263 267 269 272 274 274 274 276 277 280 281 281 281 282 283 286 289 292 293 294
241 243 245 247 248 248 249 250 250 251 252 250 251 252 253 252 251 254 257 259 261 262 261 261 262 265 269 271 272 273 274 276 277 279 281 281 281 282 285 287 288 291 293 293
243 244 245 246 246 248 249 249 248 249 250 251 251 251 252 253 252 252 255 258 259 261 262 262 263 265 266 267 268 270 272 274 276 278 279 281 281 282 284 286 289 291 293 293
244 244 245 245 245 246 247 248 248 248 249 251 252 252 253 254 253 253 255 257 259 261 262 262 261 263 264 265 266 268 270 272 274 277 279 280 282 282 284 288 291 293 293 294
243 244 245 246 247 247 247 247 248 249 251 252 254 254 253 253 252 253 255 257 259 260 261 261 261 261 262 262 264 266 268 270 273 276 278 279 281 283 285 288 290 291 292 294
244 245 246 247 248 248 248 248 249 250 250 251 252 254 253 253 254 254 255 257 258 259 261 261 261 260 261 263 264 266 268 269 272 274 277 279 281 282 284 287 289 290 292 293
245 245 246 247 248 249 249 250 251 251 251 251 251 253 254 254 255 255 255 256 256 258 260 260 260 261 260 262 265 266 267 269 271 272 275 278 280 282 284 286 288 290 291 292
245 245 246 248 248 249 249 250 252 252 253 252 252 253 254 255 256 255 254 255 256 257 258 260 260 259 259 261 264 266 267 269 270 271 274 276 279 281 283 285 286 288 290 291
244 245 247 247 248 249 250 251 253 253 253 252 252 254 255 256 255 254 254 255 256 258 259 260 259 259 261 262 264 267 269 270 271 272 274 276 278 280 283 284 285 287 289 290
245 247 249 251 250 250 250 251 252 251 250 250 251 253 256 256 256 256 256 256 258 259 259 259 260 260 263 264 266 267 268 271 272 273 274 275 276 278 281 283 285 285 286 289
248 250 252 252 252 251 251 251 250 249 248 250 252 253 255 256 257 258 258 257 259 259 259 260 261 262 263 264 266 266 267 269 271 273 274 275 276 278 280 282 284 285 287 290
249 252 253 252 251 252 253 252 250 248 248 250 252 252 253 255 256 258 259 259 260 259 258 258 259 262 263 264 265 267 269 271 272 272 274 275 276 278 279 281 283 285 288 290
249 252 253 251 251 252 253 253 250 249 250 250 251 252 253 255 257 259 260 260 260 260 260 259 259 262 264 264 265 267 269 270 272 273 274 275 277 278 279 282 284 285 287 289
252 253 254 254 254 253 254 253 251 251 252 252 252 252 253 255 256 257 259 260 260 260 260 260 261 263 263 264 265 266 268 269 272 274 274 276 277 279 279 282 284 285 286 288
256 257 257 256 255 254 253 252 251 250 251 252 252 252 252 254 255 256 258 259 260 258 258 260 262 263 264 264 265 267 267 270 272 273 274 275 276 278 279 281 283 285 288 290
257 256 255 255 255 253 252 250 250 249 249 250 250 249 251 254 256 258 259 259 258 256 257 260 262 263 263 264 264 267 268 270 272 273 273 274 276 277 279 281 284 287 288 290
258 254 255 256 257 254 250 249 250 249 249 250 250 249 252 255 257 259 260 259 256 255 256 258 261 262 264 265 266 268 268 269 271 271 270 272 274 277 279 282 285 287 289 291
257 254 255 255 255 251 249 251 252 250 249 249 249 250 253 255 256 258 258 256 254 254 255 257 259 260 262 263 263 265 266 267 270 271 272 272 274 277 280 283 287 289 290 293
254 252 254 253 253 254 251 252 252 250 248 247 248 249 252 254 255 255 255 255 252 252 254 256 257 257 258 259 260 262 265 267 268 271 272 272 274 278 281 284 287 288 289 291
Height
5864 5866 5868 5871 5873 5875 5878 5881 5884 5886 5886 5887 5888 5889 5890 5891 5892 5892 5893 5893 5893 5893 5893 5893 5893 5892 5892 5892 5891 5891 5890 5889 5888 5887 5886 5885 5883 5882 5880 5878 5876 5874 5872 5870
5858 5860 5862 5864 5867 5870 5872 5874 5877 5879 5880 5881 5882 5884 5885 5886 5886 5887 5888 5888 5889 5889 5889 5889 5888 5888 5888 5888 5887 5886 5886 5885 5884 5883 5882 5881 5879 5878 5876 5874 5872 5870 5868 5865
5852 5854 5856 5858 5861 5864 5866 5868 5871 5872 5875 5875 5877 5878 5879 5880 5881 5882 5883 5883 5884 5884 5884 5884 5884 5884 5883 5883 5882 5881 5881 5880 5879 5878 5877 5876 5875 5873 5871 5869 5867 5865 5863 5860
5845 5848 5850 5854 5855 5858 5860 5862 5864 5866 5867 5869 5871 5873 5874 5874 5875 5876 5877 5878 5878 5879 5879 5879 5879 5878 5878 5878 5877 5876 5875 5875 5874 5873 5872 5871 5870 5868 5866 5864 5862 5860 5858 5855
5838 5840 5843 5846 5848 5851 5853 5855 5857 5859 5861 5863 5865 5866 5867 5868 5869 5871 5872 5872 5872 5873 5873 5873 5873 5873 5873 5872 5871 5871 5870 5869 5868 5867 5866 5865 5864 5862 5861 5859 5857 5855 5852 5850
5831 5834 5836 5839 5841 5844 5847 5847 5850 5852 5854 5856 5858 5860 5861 5862 5863 5864 5865 5866 5866 5866 5867 5867 5867 5867 5867 5867 5866 5865 5864 5863 5862 5861 5860 5859 5858 5856 5855 5853 5851 5849 5846 5844
5823 5826 5828 5831 5833 5837 5840 5841 5843 5844 5846 5848 5850 5852 5854 5855 5856 5857 5858 5859 5859 5859 5860 5860 5860 5860 5860 5860 5860 5859 5858 5857 5856 5855 5854 5852 5851 5849 5848 5847 5845 5842 5840 5837
5815 5818 5822 5823 5826 5829 5830 5832 5835 5836 5839 5840 5842 5844 5846 5847 5848 5850 5850 5851 5852 5852 5852 5853 5853 5853 5853 5853 5853 5852 5851 5850 5849 5848 5847 5845 5844 5842 5841 5840 5838 5836 5833 5830
5807 5811 5812 5815 5818 5820 5822 5824 5826 5828 5830 5832 5834 5836 5837 5839 5840 5841 5842 5843 5843 5844 5844 5844 5845 5845 5845 5845 5845 5844 5843 5843 5842 5841 5840 5838 5837 5835 5834 5833 5831 5829 5826 5823
5798 5801 5804 5806 5809 5811 5813 5816 5818 5820 5822 5824 5826 5827 5829 5830 5831 5833 5834 5834 5834 5835 5835 5836 5836 5837 5837 5837 5837 5837 5836 5836 5835 5834 5832 5831 5830 5828 5827 5825 5823 5821 5819 5816
5788 5791 5794 5797 5800 5802 5805 5807 5809 5811 5813 5815 5817 5818 5820 5821 5823 5824 5825 5826 5826 5826 5827 5828 5828 5828 5829 5829 5829 5829 5828 5828 5827 5826 5825 5824 5822 5821 5819 5818 5815 5813 5811 5808
5779 5782 5785 5788 5791 5793 5795 5798 5800 5802 5804 5806 5808 5809 5811 5812 5814 5815 5816 5817 5817 5818 5818 5819 5820 5820 5820 5821 5821 5821 5821 5820 5819 5818 5817 5816 5815 5813 5811 5810 5808 5805 5803 5800
5769 5772 5775 5778 5781 5783 5785 5788 5790 5793 5795 5797 5798 5800 5801 5803 5804 5806 5806 5807 5808 5809 5810 5810 5811 5811 5811 5812 5812 5812 5812 5812 5811 5810 5809 5808 5806 5805 5803 5801 5799 5797 5795 5792
5760 5763 5766 5768 5771 5773 5775 5778 5780 5782 5785 5787 5789 5790 5792 5793 5795 5796 5797 5798 5799 5800 5800 5801 5802 5802 5803 5803 5803 5803 5803 5803 5802 5802 5800 5799 5798 5796 5794 5792 5791 5788 5786 5784
5750 5753 5756 5758 5761 5763 5765 5768 5770 5772 5774 5776 5779 5780 5782 5783 5785 5787 5788 5789 5790 5791 5791 5792 5792 5793 5793 5794 5794 5794 5794 5794 5793 5792 5791 5790 5789 5787 5785 5783 5781 5779 5777 5775
5741 5743 5746 5749 5751 5753 5755 5757 5760 5762 5764 5766 5768 5770 5772 5774 5775 5777 5778 5779 5780 5781 5781 5782 5782 5783 5783 5784 5784 5784 5784 5784 5783 5783 5782 5781 5779 5778 5776 5774 5772 5770 5768 5765
5732 5735 5737 5739 5741 5743 5745 5747 5750 5752 5754 5756 5758 5760 5762 5764 5766 5767 5769 5770 5770 5771 5771 5772 5773 5773 5773 5774 5774 5774 5774 5774 5773 5772 5772 5771 5770 5768 5767 5765 5763 5761 5758 5756
5723 5725 5727 5729 5731 5733 5735 5737 5740 5742 5744 5746 5748 5750 5752 5754 5756 5757 5758 5759 5760 5760 5761 5761 5762 5763 5764 5764 5764 5764 5764 5764 5763 5762 5762 5761 5760 5759 5757 5755 5753 5751 5749 5746
5714 5716 5718 5720 5722 5724 5726 5727 5730 5732 5734 5736 5739 5741 5743 5744 5746 5747 5748 5749 5750 5750 5751 5751 5752 5753 5753 5754 5754 5754 5754 5754 5753 5752 5752 5751 5750 5748 5747 5745 5744 5742 5739 5737
5706 5708 5709 5711 5713 5715 5716 5718 5720 5722 5725 5727 5729 5731 5733 5735 5736 5737 5738 5739 5739 5740 5740 5741 5742 5743 5743 5743 5743 5744 5744 5744 5743 5742 5742 5741 5740 5739 5737 5736 5734 5732 5730 5728
5699 5700 5701 5703 5704 5705 5707 5709 5711 5713 5715 5717 5719 5721 5723 5725 5726 5727 5728 5729 5730 5730 5731 5732 5733 5733 5734 5734 5734 5734 5734 5734 5734 5733 5732 5731 5731 5730 5728 5727 5725 5723 5721 5719
5692 5693 5694 5694 5695 5696 5698 5700 5702 5704 5706 5708 5710 5712 5714 5715 5717 5718 5718 5720 5721 5721 5722 5723 5723 5724 5724 5725 5725 5725 5725 5725 5725 5724 5723 5722 5722 5721 5720 5718 5717 5715 5713 5711
5685 5686 5686 5687 5688 5689 5690 5692 5694 5696 5698 5700 5702 5704 5705 5707 5707 5709 5710 5711 5712 5713 5714 5715 5715 5715 5716 5716 5717 5717 5717 5717 5716 5716 5715 5714 5714 5713 5712 5710 5709 5708 5706 5704
5678 5679 5679 5679 5680 5681 5682 5684 5686 5688 5690 5692 5694 5695 5697 5698 5699 5700 5701 5702 5703 5705 5706 5706 5707 5707 5708 5708 5709 5709 5709 5709 5708 5708 5707 5707 5706 5705 5704 5703 5702 5700 5698 5696
5672 5672 5672 5673 5673 5674 5675 5677 5679 5681 5683 5685 5686 5688 5689 5690 5691 5692 5693 5694 5695 5696 5698 5698 5699 5699 5700 5701 5701 5701 5701 5701 5701 5701 5700 5700 5699 5698 5697 5696 5694 5693 5691 5689
5668 5667 5668 5668 5668 5669 5670 5671 5673 5674 5676 5678 5680 5681 5682 5683 5684 5685 5686 5687 5688 5689 5690 5691 5691 5692 5693 5694 5694 5694 5694 5694 5694 5693 5693 5693 5692 5691 5690 5689 5688 5686 5684 5682
5664 5664 5664 5664 5665 5665 5666 5667 5668 5669 5670 5672 5673 5675 5676 5676 5677 5678 5679 5680 5681 5683 5684 5685 5685 5685 5686 5687 5688 5688 5688 5688 5687 5687 5687 5686 5685 5685 5684 5683 5681 5680 5678 5676